#timestamp,LO_Frequency,Hit,StdDev 
1609905615.3,286047001.8,N
1609905635.1,286047002.7,N
1609905655.8,286046998.1,N
1609905675.7,286046998.6,N
1609905695.5,286047000.8,N
1609905715.4,286046999.9,N
1609905735.2,286047002.7,N
1609905755.0,286047000.5,N
1609905755.9,286047000.5,N
1609905775.8,286047002.8,N
1609905795.6,286047002.1,N
1609905815.5,286047002.5,N
1609905835.3,286047002.0,N
1609905855.1,286047001.9,N
1609905875.9,286047002.4,N
1609905895.7,286046999.7,N
1609905915.5,286047002.4,N
1609905935.4,286047000.9,N
1609905955.2,286047000.7,N
1609905975.1,286047000.2,N
1609905976.0,286047000.2,N
1609905995.8,286047000.9,N
1609906015.6,286046999.9,N
1609906035.5,286046999.8,N
1609906055.3,286047001.1,N
1609906075.1,286046998.5,N
1609906095.9,286046999.3,N
1609906115.7,286046998.8,N
1609906135.6,286046998.9,N
1609906155.4,286046999.0,N
1609906175.2,286046998.3,N
1609906195.1,286046998.7,N
1609906196.0,286046998.7,N
1609906215.8,286046996.8,N
1609906235.7,286046999.1,N
1609906255.5,286046999.0,N
1609906275.3,286046998.7,N
1609906295.2,286046999.1,N
1609906315.0,286046997.1,N
1609906315.9,286046997.1,N
1609906335.7,286046996.5,N
1609906355.6,286046999.1,N
1609906375.4,286046998.0,N
1609906395.3,286046997.9,N
1609906415.1,286046997.5,N
1609906416.0,286046997.5,N
1609906435.8,286046998.0,N
1609906455.7,286046997.6,N
1609906475.5,286046995.3,Y
1609906495.3,286046995.0,P
1609906515.2,286046995.0,N
1609906535.0,286046993.4,P
1609906535.9,286046993.4,Y
1609906555.8,286046999.3,P
1609906575.6,286047001.1,N
1609906595.4,286047000.8,N
1609906615.3,286046998.5,N
1609906635.1,286047000.7,N
1609906655.9,286047001.2,N
1609906675.7,286046998.7,N
1609906695.5,286046999.4,N
1609906715.4,286046997.1,N
1609906735.2,286046994.9,N
1609906755.0,286046995.3,N
1609906755.9,286046995.3,N
1609906775.8,286046997.1,N
1609906795.6,286046995.0,N
1609906815.5,286046994.9,N
1609906835.3,286046998.0,N
1609906855.1,286046994.9,N
1609906875.9,286046997.7,N
1609906895.7,286046997.4,N
1609906915.5,286046995.2,N
1609906935.4,286046995.3,N
1609906955.2,286046996.8,N
1609906975.0,286046997.1,N
1609906976.0,286046997.1,N
1609906995.8,286046997.8,N
1609907015.6,286046996.9,N
1609907035.5,286046996.7,N
1609907055.3,286046995.3,N
1609907075.1,286046995.7,N
1609907095.9,286046996.1,N
1609907115.7,286046995.8,N
1609907135.5,286046996.1,N
1609907155.4,286046995.2,N
1609907175.2,286046995.6,N
1609907195.1,286046995.5,N
1609907196.0,286046995.5,Y
1609907215.8,286047001.2,P
1609907235.6,286046999.4,N
1609907255.5,286046998.2,N
1609907275.3,286047001.2,N
1609907295.1,286046997.7,N
1609907315.9,286046998.5,N
1609907335.7,286046999.6,N
1609907355.6,286046997.3,N
1609907375.4,286046996.1,N
1609907395.3,286046997.3,N
1609907415.1,286046996.5,N
1609907416.0,286046996.5,N
1609907435.8,286046999.3,N
1609907455.7,286046998.4,N
1609907475.5,286047000.7,N
1609907495.3,286046998.1,N
1609907515.2,286046998.7,N
1609907535.0,286046999.4,N
1609907535.9,286046999.4,N
1609907555.8,286046998.9,N
1609907575.6,286047000.7,N
1609907595.4,286047000.5,N
1609907615.3,286047000.0,N
1609907635.1,286046998.4,N
1609907655.8,286046998.3,N
1609907675.7,286047000.6,N
1609907695.5,286047001.0,N
1609907715.4,286046999.6,N
1609907735.2,286046999.3,N
1609907755.0,286047000.8,N
1609907755.9,286047000.8,N
1609907775.8,286047000.0,N
1609907795.6,286047000.4,N
1609907815.4,286047002.3,N
1609907835.3,286047003.4,N
1609907855.1,286047002.9,N
1609907875.9,286047005.8,Y
1609907895.7,286047003.3,P
1609907915.5,286047004.1,N
1609907935.4,286047001.3,N
1609907955.2,286047003.8,N
1609907975.0,286047004.4,N
1609907976.0,286047004.4,N
1609907995.8,286047003.8,N
1609908015.6,286047002.8,N
1609908035.5,286047002.7,N
1609908055.3,286047001.8,N
1609908075.1,286047004.0,N
1609908095.9,286047004.3,Y
1609908115.7,286047000.5,P
1609908135.6,286047001.1,N
1609908155.4,286047000.5,N
1609908175.2,286047001.1,N
1609908195.1,286046998.7,N
1609908196.0,286046998.7,N
1609908215.8,286046998.2,N
1609908235.6,286046999.8,N
1609908255.5,286047000.1,N
1609908275.3,286047000.7,N
1609908295.2,286046998.6,N
1609908315.9,286046998.8,N
1609908335.7,286047000.9,N
1609908355.6,286047001.9,N
1609908375.4,286047002.6,N
1609908395.2,286047000.5,N
1609908415.1,286047000.6,N
1609908416.0,286047000.6,N
1609908435.8,286047000.3,N
1609908455.7,286047000.9,N
1609908475.5,286046999.7,N
1609908495.3,286047001.6,N
1609908515.2,286047001.5,N
1609908535.0,286047002.5,N
1609908535.9,286047002.5,N
1609908555.7,286047001.8,N
1609908575.6,286047001.4,N
1609908595.4,286047001.6,N
1609908615.3,286047001.8,N
1609908635.1,286047002.2,N
1609908636.0,286047002.2,N
1609908655.8,286047002.0,N
1609908675.7,286047004.4,Y
1609908695.5,286047001.6,P
1609908715.4,286047002.5,P
1609908735.2,286047002.5,P
1609908755.0,286047004.3,Y
1609908755.9,286047004.3,P
1609908775.8,286047004.4,P
1609908795.6,286046998.1,N
1609908815.4,286047000.8,N
1609908835.3,286047000.9,N
1609908855.1,286047000.8,N
1609908875.9,286047000.4,N
1609908895.7,286047001.1,N
1609908915.5,286046999.6,N
1609908935.4,286046999.6,N
1609908955.2,286046998.4,N
1609908975.0,286047001.1,N
1609908975.9,286047001.1,N
1609908995.8,286047000.3,N
1609909015.6,286047000.2,N
1609909035.5,286046999.8,N
1609909055.3,286047000.5,N
1609909075.1,286046998.1,N
1609909095.9,286047001.0,N
1609909115.7,286046999.3,N
1609909135.5,286046998.8,N
1609909155.4,286047001.1,N
1609909175.2,286047000.6,N
1609909195.1,286047001.2,N
1609909196.0,286047001.2,N
